[[{"header":{"parameterUnit":"m.s-1","parameterCategory":1,"la1":30.2991,"la2":30.254,"lo1":-89.0895,"lo2":-89.0444,"dy":0.0017,"dx":0.0017,"nx":28,"ny":28,"refTime":"2024-07-24T21:00:00:Z","depth":0,"parameterNumber":2,"parameterNumberName":"U-component_of_WINDS"},"data":[0,0,0,0,0,0,0,0,0,0,0,0,0,0,0,0,0,0,0,0,0,0,0,0,0,0,0,0,0,0,0,0,0,0,0,0,0,0,0,0,0,0,0,0,0,0,0,0,0,0,0,0,0,0,0,0,0,0,1.6657,1.6658,0,1.6744,1.6745,1.6746,1.6729,1.6727,1.6725,1.6724,1.6814,1.6818,1.6822,0,0,0,0,0,0,0,0,0,0,0,0,0,1.6475,1.6479,1.6657,1.6658,1.6659,1.6744,1.6745,1.6747,1.6729,1.6727,1.6725,1.6723,1.6813,1.6818,1.6822,0,0,0,0,0,0,0,0,0,0,0,0,0,1.6558,1.648,1.6657,1.666,1.6662,1.6744,1.6745,1.6747,1.6729,1.6727,1.6724,1.6722,1.6811,1.6817,1.6823,1.6907,0,0,1.6841,1.6843,0,0,0,0,0,0,0,0,1.6553,1.6564,1.6659,1.666,1.6662,1.6723,1.6715,1.6801,1.673,1.6704,1.6724,1.6721,1.6786,1.6794,1.6815,1.6911,1.6915,1.6841,1.6845,1.6847,1.6849,0,0,0,0,0,0,0,1.6547,1.656,1.6691,1.666,1.6662,1.6658,1.6667,1.6731,1.6757,1.6706,1.6705,1.6715,1.6786,1.681,1.6817,1.6917,1.6841,1.6846,1.685,1.6852,1.7087,1.7089,0,0,0,0,0,0,1.654,1.6556,1.6689,1.6694,1.66,1.6663,1.6673,1.6706,1.6756,1.6762,1.6717,1.6714,1.6801,1.6811,1.6821,1.6923,1.6847,1.6853,1.6856,1.7084,1.7087,1.709,0,0,0,0,0,0,1.6536,1.6552,1.6685,1.6625,1.6641,1.6669,1.6706,1.6709,1.6732,1.6765,1.677,1.6736,1.6799,1.6812,1.6886,1.6926,1.6855,1.6861,1.7081,1.7085,1.7089,1.7128,0,0,0,0,0,0,1.6531,1.6551,1.6583,1.6626,1.6645,1.6749,1.6708,1.6712,1.6742,1.6739,1.6784,1.6789,1.6799,1.6877,1.6892,1.6932,1.6865,1.7077,1.7083,1.7088,1.7123,1.7133,1.7141,0,0,0,0,0,1.6525,1.659,1.6585,1.6601,1.6685,1.6751,1.6762,1.6771,1.6746,1.6778,1.6799,1.6788,1.6919,1.6885,1.6901,1.6944,1.7075,1.7081,1.7087,1.7119,1.7131,1.7141,0,0,0,0,0,0,1.6552,1.6596,1.659,1.6671,1.6708,1.6748,1.6789,1.6783,1.6827,1.6822,1.6832,1.6842,1.6917,1.6938,1.6899,1.7029,1.6993,1.7003,1.7012,1.7024,1.7032,1.7026,1.687,0,0,0,0,0,1.6567,1.6617,1.6653,1.6721,1.674,1.6762,1.6791,1.6794,1.6832,1.6847,1.6874,1.6911,1.6961,1.6994,1.7041,1.7126,1.7136,1.7164,1.7173,1.718,1.7188,1.7235,1.7248,1.711,1.711,1.711,0,0,1.66,1.663,1.6661,1.6728,1.6756,1.6807,1.6774,1.683,1.6869,1.6856,1.6927,1.6948,1.699,1.707,1.7107,1.709,1.7228,1.7188,1.7193,1.7198,1.7243,1.7256,1.7267,1.7115,1.7114,1.7113,0,0,1.6685,1.6713,1.6773,1.6802,1.6846,1.686,1.6874,1.6916,1.6929,1.7001,1.6993,1.7038,1.7124,1.7154,1.7181,1.7279,1.727,1.7294,1.7341,1.7386,1.7397,1.7407,1.7442,1.7454,1.7302,1.7302,1.7302,0,1.672,1.6797,1.6805,1.6862,1.6891,1.6882,1.6944,1.6972,1.7029,1.705,1.703,1.7137,1.7165,1.7252,1.7276,1.7298,1.7315,1.7289,1.7395,1.7405,1.7414,1.7447,1.746,1.7305,1.7305,1.7304,1.7304,0,1.6838,1.6891,1.6935,1.699,1.7024,1.7083,1.71,1.7135,1.7136,1.7152,1.7225,1.7258,1.7313,1.7334,1.7335,1.7421,1.7409,1.7392,1.7357,1.7429,1.7461,1.7474,1.7309,1.7308,1.7307,1.7306,0,0,1.6942,1.7001,1.7017,1.7042,1.709,1.7131,1.719,1.7243,1.7272,1.7312,1.7361,1.7434,1.7419,1.7449,1.7454,1.7494,1.757,1.7472,1.7473,1.7489,1.7667,1.7679,1.7694,1.7564,1.7567,1.7569,1.7663,0,1.7032,1.7135,1.7144,1.7236,1.7286,1.7279,1.733,1.7365,1.7382,1.7427,1.7446,1.7497,1.7473,1.7491,1.753,1.7552,1.7605,1.7545,1.761,1.7613,1.76,1.771,1.7724,1.7811,1.7675,1.7678,1.7679,0,1.715,1.7193,1.7291,1.7332,1.7353,1.7399,1.7448,1.7491,1.7531,1.754,1.7575,1.7574,1.7635,1.7598,1.7682,1.7641,1.7668,1.7683,1.7686,1.7692,1.765,1.7719,1.7839,1.7852,1.7699,1.7697,1.7696,0,1.7216,1.7299,1.7368,1.739,1.7439,1.7472,1.7494,1.7531,1.7563,1.7606,1.7626,1.7676,1.7704,1.7743,1.7756,1.7727,1.7839,1.7803,1.7849,1.7849,1.7873,1.7871,1.7999,1.7891,1.7891,1.789,1.789,0,1.7315,1.7375,1.7399,1.7441,1.7508,1.7519,1.7585,1.7606,1.7639,1.7686,1.7682,1.7726,1.7741,1.7788,1.7799,1.7867,1.7879,1.7889,1.7891,1.7889,1.7888,1.7907,1.7901,1.7894,1.7893,1.7892,1.7892,0,1.7401,1.7419,1.7493,1.7535,1.7546,1.7594,1.7629,1.767,1.7687,1.7746,1.776,1.7786,1.7841,1.7858,1.7924,1.7932,1.8011,1.8008,1.7998,1.7998,1.8043,1.8039,1.8187,1.8207,1.8086,1.8087,1.8088,0,1.7463,1.7509,1.7555,1.7586,1.7609,1.7659,1.7691,1.7703,1.7737,1.7786,1.7821,1.7875,1.7919,1.8007,1.8032,1.8083,1.8081,1.8129,1.8088,1.8085,1.8081,1.8078,1.8083,1.8137,1.8138,1.8139,1.814,0,1.7571,1.7577,1.7624,1.7673,1.7712,1.7751,1.7789,1.7815,1.7833,1.7871,1.7927,1.7961,1.8028,1.8082,1.8134,1.8157,1.8152,1.8153,1.8166,1.8164,1.8157,1.8161,1.8019,1.8149,1.8148,1.8148,1.8147,1.8147,1.7646,1.7687,1.7726,1.7778,1.7808,1.7844,1.7884,1.7906,1.7953,1.8009,1.8013,1.8074,1.8113,1.8181,1.8207,1.8255,1.8241,1.826,1.8265,1.827,1.8273,1.8149,1.8264,1.8264,1.8264,1.8263,1.8263,0,1.7754,1.7779,1.7826,1.788,1.7921,1.7912,1.7955,1.7989,1.8042,1.8079,1.8123,1.8187,1.8239,1.8268,1.8321,1.8353,1.8352,1.8367,1.8364,1.837,1.8283,1.8266,1.8367,1.8367,1.8367,1.8367,1.8367,1.8367,1.7815,1.7883,1.7895,1.7978,1.8003,1.8062,1.8087,1.812,1.8149,1.8221,1.8265,1.8284,1.8318,1.8372,1.842,1.8427,1.8447,1.8463,1.8469,1.8386,1.8376,1.8366,1.835,1.8467,1.8467,1.8552,1.8553,1.8553]},{"header":{"parameterUnit":"m.s-1","parameterCategory":1,"la1":30.2991,"la2":30.254,"lo1":-89.0895,"lo2":-89.0444,"dy":0.0017,"dx":0.0017,"nx":28,"ny":28,"refTime":"2024-07-24T21:00:00:Z","depth":0,"parameterNumber":3,"parameterNumberName":"V-component_of_WINDS"},"data":[0,0,0,0,0,0,0,0,0,0,0,0,0,0,0,0,0,0,0,0,0,0,0,0,0,0,0,0,0,0,0,0,0,0,0,0,0,0,0,0,0,0,0,0,0,0,0,0,0,0,0,0,0,0,0,0,0,0,-0.3949,-0.3948,0,-0.3825,-0.3823,-0.3822,-0.3778,-0.3779,-0.3779,-0.378,-0.3646,-0.3643,-0.3639,0,0,0,0,0,0,0,0,0,0,0,0,0,-0.4144,-0.4141,-0.3949,-0.3948,-0.3946,-0.3825,-0.3823,-0.3821,-0.3778,-0.3779,-0.3779,-0.378,-0.3648,-0.3643,-0.3638,0,0,0,0,0,0,0,0,0,0,0,0,0,-0.4044,-0.414,-0.395,-0.391,-0.3905,-0.3825,-0.3823,-0.3821,-0.3778,-0.3779,-0.378,-0.378,-0.3649,-0.3643,-0.3638,-0.3586,0,0,-0.3619,-0.3617,0,0,0,0,0,0,0,0,-0.4049,-0.4037,-0.3918,-0.3913,-0.3907,-0.3818,-0.3843,-0.3742,-0.3778,-0.3826,-0.378,-0.3781,-0.3702,-0.3692,-0.3667,-0.358,-0.3574,-0.3619,-0.3615,-0.3612,-0.3611,0,0,0,0,0,0,0,-0.4056,-0.4042,-0.39,-0.3916,-0.391,-0.3897,-0.3883,-0.3824,-0.3762,-0.3822,-0.3819,-0.3805,-0.37,-0.3673,-0.3664,-0.3572,-0.3619,-0.3613,-0.361,-0.3607,-0.3435,-0.3434,0,0,0,0,0,0,-0.4071,-0.4048,-0.3904,-0.3896,-0.3982,-0.3893,-0.3878,-0.3846,-0.3762,-0.375,-0.3804,-0.3803,-0.3683,-0.3671,-0.3659,-0.3592,-0.3612,-0.3607,-0.3603,-0.3436,-0.3434,-0.3433,0,0,0,0,0,0,-0.4075,-0.4058,-0.3909,-0.3971,-0.3951,-0.3889,-0.3853,-0.3843,-0.3816,-0.3749,-0.3737,-0.3789,-0.3683,-0.3667,-0.3604,-0.3586,-0.3604,-0.3599,-0.3437,-0.3435,-0.3434,-0.3458,0,0,0,0,0,0,-0.4081,-0.406,-0.4041,-0.3971,-0.3948,-0.3858,-0.3852,-0.384,-0.3806,-0.3804,-0.3731,-0.3719,-0.3682,-0.3614,-0.3599,-0.3579,-0.3594,-0.3438,-0.3436,-0.3434,-0.3459,-0.3458,-0.3457,0,0,0,0,0,-0.4088,-0.4052,-0.4041,-0.4023,-0.3923,-0.3857,-0.3844,-0.3804,-0.3805,-0.3785,-0.3741,-0.3722,-0.3592,-0.3608,-0.359,-0.3568,-0.3439,-0.3437,-0.3435,-0.3459,-0.3458,-0.3457,0,0,0,0,0,0,-0.4119,-0.4042,-0.4028,-0.3969,-0.392,-0.385,-0.3823,-0.3804,-0.3752,-0.3752,-0.3702,-0.3686,-0.3627,-0.3591,-0.3611,-0.3513,-0.3514,-0.3508,-0.3538,-0.3537,-0.3536,-0.3545,-0.3589,0,0,0,0,0,-0.412,-0.4075,-0.4009,-0.3962,-0.3939,-0.3886,-0.3855,-0.3829,-0.3776,-0.3754,-0.3706,-0.3654,-0.3601,-0.3567,-0.3515,-0.3454,-0.3436,-0.343,-0.3429,-0.3429,-0.3424,-0.3388,-0.3384,-0.3426,-0.3426,-0.3426,0,0,-0.4119,-0.4071,-0.4046,-0.3968,-0.3927,-0.388,-0.3868,-0.3819,-0.3783,-0.3746,-0.3684,-0.3647,-0.3586,-0.3524,-0.3494,-0.3492,-0.3408,-0.3426,-0.3426,-0.3421,-0.3385,-0.3381,-0.3377,-0.3425,-0.3425,-0.3425,0,0,-0.4094,-0.4054,-0.4011,-0.3971,-0.391,-0.3875,-0.3865,-0.3797,-0.3772,-0.371,-0.3681,-0.3637,-0.3547,-0.3504,-0.347,-0.343,-0.3409,-0.3414,-0.3409,-0.3374,-0.3371,-0.3367,-0.3351,-0.3346,-0.341,-0.341,-0.341,0,-0.41,-0.403,-0.399,-0.3943,-0.3908,-0.3876,-0.383,-0.3793,-0.3717,-0.3693,-0.3693,-0.358,-0.3536,-0.3463,-0.3453,-0.3428,-0.3413,-0.3421,-0.3375,-0.3371,-0.3367,-0.3351,-0.3346,-0.3411,-0.3411,-0.341,-0.341,0,-0.404,-0.3991,-0.3963,-0.3893,-0.3856,-0.381,-0.3762,-0.3729,-0.3706,-0.367,-0.3606,-0.3553,-0.3489,-0.347,-0.3446,-0.3393,-0.3393,-0.3385,-0.3384,-0.3365,-0.3349,-0.3343,-0.3412,-0.3412,-0.3411,-0.3411,0,0,-0.4029,-0.3939,-0.3929,-0.3897,-0.3828,-0.3789,-0.374,-0.368,-0.3652,-0.3601,-0.3558,-0.3483,-0.3475,-0.3437,-0.3408,-0.3378,-0.3348,-0.3373,-0.337,-0.3369,-0.3284,-0.329,-0.3284,-0.3335,-0.3333,-0.3332,-0.3289,0,-0.3994,-0.3908,-0.3871,-0.3801,-0.3755,-0.3724,-0.3681,-0.3633,-0.3599,-0.3553,-0.3514,-0.3462,-0.3456,-0.3432,-0.3402,-0.3358,-0.333,-0.3361,-0.3292,-0.329,-0.3307,-0.3276,-0.3281,-0.3243,-0.3282,-0.3281,-0.3281,0,-0.394,-0.3891,-0.3818,-0.3754,-0.3733,-0.3696,-0.3637,-0.3595,-0.354,-0.3516,-0.3475,-0.3448,-0.3394,-0.3399,-0.3323,-0.3345,-0.3314,-0.3289,-0.3286,-0.3277,-0.3283,-0.3263,-0.323,-0.3223,-0.3271,-0.3272,-0.3272,0,-0.3938,-0.3854,-0.3798,-0.3772,-0.3697,-0.3671,-0.3638,-0.3584,-0.355,-0.3498,-0.3475,-0.3417,-0.3385,-0.334,-0.3297,-0.3305,-0.3225,-0.3227,-0.3203,-0.3204,-0.3185,-0.3187,-0.3145,-0.3169,-0.3169,-0.3169,-0.317,0,-0.3901,-0.3857,-0.3796,-0.3762,-0.3711,-0.3669,-0.3619,-0.3584,-0.3536,-0.3493,-0.3462,-0.3422,-0.3369,-0.3321,-0.3288,-0.3229,-0.3215,-0.3193,-0.3184,-0.3195,-0.3198,-0.3173,-0.3174,-0.3168,-0.3168,-0.3169,-0.3169,0,-0.3889,-0.3848,-0.3785,-0.372,-0.3702,-0.3667,-0.361,-0.3575,-0.354,-0.3486,-0.347,-0.3414,-0.3357,-0.3311,-0.3235,-0.3212,-0.3151,-0.3142,-0.317,-0.3165,-0.3143,-0.3145,-0.3082,-0.3071,-0.3105,-0.3105,-0.3105,0,-0.3868,-0.3833,-0.3765,-0.3735,-0.3703,-0.3655,-0.362,-0.3577,-0.3542,-0.3477,-0.3449,-0.339,-0.3341,-0.325,-0.3201,-0.3143,-0.3131,-0.3113,-0.3122,-0.3134,-0.3129,-0.3131,-0.3126,-0.3112,-0.3112,-0.3112,-0.3112,0,-0.3833,-0.3815,-0.3767,-0.3712,-0.3672,-0.3627,-0.358,-0.3557,-0.3505,-0.3467,-0.3409,-0.3371,-0.3295,-0.3236,-0.3173,-0.3137,-0.3115,-0.311,-0.3101,-0.311,-0.3127,-0.3116,-0.3166,-0.3111,-0.3111,-0.3111,-0.3111,-0.3111,-0.3814,-0.3782,-0.3729,-0.3677,-0.3638,-0.3595,-0.3559,-0.352,-0.3471,-0.3407,-0.3385,-0.3325,-0.3269,-0.3183,-0.3147,-0.3098,-0.3096,-0.3083,-0.308,-0.3077,-0.3077,-0.3137,-0.3087,-0.3087,-0.3087,-0.3087,-0.3087,0,-0.3777,-0.3742,-0.3695,-0.3631,-0.359,-0.3576,-0.3523,-0.3489,-0.3437,-0.3389,-0.3341,-0.3274,-0.3217,-0.3165,-0.3104,-0.3075,-0.3064,-0.3061,-0.3061,-0.3053,-0.3084,-0.3097,-0.3071,-0.3071,-0.3071,-0.3071,-0.3071,-0.3071,-0.3753,-0.3697,-0.3672,-0.3595,-0.356,-0.3503,-0.3474,-0.3433,-0.3394,-0.3322,-0.3275,-0.3242,-0.3191,-0.3127,-0.3074,-0.3059,-0.3038,-0.3037,-0.302,-0.3049,-0.3051,-0.3053,-0.3065,-0.3034,-0.3033,-0.2994,-0.2993,-0.2993]}]]